Petersburg, AK

5:49 PM AKST on January 18, 2017 (GMT -0900)
Johnson Petersburg

Weather History for PAPG - October, 2013

Change the Weather History Date:

Wednesday, October 2, 2013

  Actual Average Record
Temperature  
Mean Temperature 47 °F -  
Max Temperature 55 °F 49 °F 67 °F (1987)
Min Temperature 39 °F 40 °F 28 °F (2000)
Degree Days  
Heating Degree Days 18    
Moisture  
Dew Point 42 °F    
Average Humidity 87    
Maximum Humidity 93    
Minimum Humidity 67    
Precipitation  
Precipitation 0.00 in - - ()
Sea Level Pressure  
Sea Level Pressure 30.09 in    
Wind  
Wind Speed 1 mph (SSW)    
Max Wind Speed 6 mph    
Max Gust Speed -    
Visibility 8 miles    
Events Fog    
Averages and records for this station are not official NWS values.
T = Trace of Precipitation, MM = Missing Value Source: NWS Daily Summary

Daily Weather History Graph

Daily Weather History Graph

Search for Another Location

Airport or City:

Trip Planner

Search our weather history database for the weather conditions in past years. The results will help you decide how hot, cold, wet, or windy it might be!

Date:

Astronomy

Oct. 02, 2013 Rise Set
Actual Time 6:58 AM AKDT 6:22 PM AKDT
Civil Twilight 6:20 AM AKDT 7:00 PM AKDT
Nautical Twilight 5:36 AM AKDT 7:44 PM AKDT
Astronomical Twilight 4:50 AM AKDT 8:30 PM AKDT
Moon 4:18 AM AKDT (10/2) 5:16 PM AKDT (10/2)
Length of Visible Light 12h 40m
Length of Day
11h 24m
Waning Crescent, 5% of the Moon is Illuminated
Oct 2
Waning Crescent
Oct 4
New
Oct 11
First Quarter
Oct 18
Full
Oct 26
Last Quarter

Hourly Weather History & Observations

Time (AKDT) Temp. Windchill Dew Point Humidity Pressure Visibility Wind Dir Wind Speed Gust Speed Precip Events Conditions
12:56 AM 46.4 °F - 44.6 °F 93% 29.97 in 10.0 mi Calm Calm - N/A   Overcast
1:16 AM 46.4 °F - 44.6 °F 93% 29.98 in 10.0 mi Calm Calm - N/A   Overcast
1:36 AM 46.4 °F - 44.6 °F 93% 29.98 in 10.0 mi Calm Calm - N/A   Overcast
2:36 AM 46.4 °F - 44.6 °F 93% 30.00 in 10.0 mi Calm Calm - N/A   Overcast
2:56 AM 46.4 °F - 44.6 °F 93% 30.00 in 10.0 mi Calm Calm - N/A   Overcast
3:16 AM 46.4 °F - 42.8 °F 87% 30.01 in 10.0 mi Calm Calm - N/A   Overcast
3:36 AM 46.4 °F - 42.8 °F 87% 30.01 in 10.0 mi Calm Calm - N/A   Overcast
3:56 AM 44.6 °F - 42.8 °F 93% 30.01 in 10.0 mi Calm Calm - N/A   Overcast
4:16 AM 44.6 °F - 42.8 °F 93% 30.02 in 10.0 mi Calm Calm - N/A   Overcast
4:36 AM 44.6 °F - 42.8 °F 93% 30.02 in 10.0 mi Calm Calm - N/A   Overcast
5:36 AM 42.8 °F - 39.2 °F 87% 30.04 in 8.0 mi Calm Calm - N/A   Partly Cloudy
5:56 AM 42.8 °F 41.1 °F 39.2 °F 87% 30.04 in 1.8 mi WSW 3.5 mph - N/A   Mostly Cloudy
6:16 AM 42.8 °F - 39.2 °F 87% 30.05 in 10.0 mi Calm Calm - N/A   Scattered Clouds
6:56 AM 42.8 °F - 39.2 °F 87% 30.06 in 0.2 mi Calm Calm - N/A   Scattered Clouds
7:16 AM 41.0 °F 38.0 °F 37.4 °F 87% 30.07 in 0.2 mi West 4.6 mph - N/A   Scattered Clouds
7:56 AM 41.0 °F 38.0 °F 39.2 °F 93% 30.07 in 1.0 mi SW 4.6 mph - N/A   Scattered Clouds
8:16 AM 42.8 °F 40.1 °F 39.2 °F 87% 30.08 in 10.0 mi WSW 4.6 mph - N/A   Scattered Clouds
8:36 AM 42.8 °F 41.1 °F 39.2 °F 87% 30.09 in 10.0 mi SSW 3.5 mph - N/A   Scattered Clouds
9:16 AM 42.8 °F - 41.0 °F 93% 30.10 in 10.0 mi Calm Calm - N/A   Scattered Clouds
9:36 AM 44.6 °F - 42.8 °F 93% 30.10 in 10.0 mi Calm Calm - N/A   Scattered Clouds
9:55 AM 44.6 °F - 42.8 °F 93% 30.11 in 3.0 mi Calm Calm - N/A   Mostly Cloudy
10:55 AM 46.4 °F 45.2 °F 44.6 °F 93% 30.11 in 10.0 mi North 3.5 mph - N/A Fog Patches of Fog
11:16 AM 46.4 °F - 44.6 °F 93% 30.12 in 10.0 mi Calm Calm - N/A   Scattered Clouds
11:36 AM 48.2 °F - 44.6 °F 87% 30.12 in 10.0 mi Calm Calm - N/A   Unknown
11:56 AM 48.2 °F - 44.6 °F 87% 30.13 in 10.0 mi ENE 3.5 mph - N/A   Scattered Clouds
12:36 PM 48.2 °F - 44.6 °F 87% 30.13 in 10.0 mi ENE 5.8 mph - N/A   Scattered Clouds
12:56 PM 50.0 °F - 44.6 °F 82% 30.13 in 10.0 mi ENE 4.6 mph - N/A   Scattered Clouds
1:16 PM 51.8 °F - 44.6 °F 76% 30.13 in 10.0 mi Calm Calm - N/A   Scattered Clouds
1:56 PM 53.6 °F - 42.8 °F 67% 30.13 in 10.0 mi Calm Calm - N/A   Scattered Clouds
2:16 PM 53.6 °F - 46.4 °F 77% 30.13 in 10.0 mi East 3.5 mph - N/A   Scattered Clouds
2:55 PM 55.4 °F - 44.6 °F 67% 30.13 in 10.0 mi NNE 4.6 mph - N/A   Scattered Clouds
3:56 PM 51.8 °F - 44.6 °F 76% 30.12 in 10.0 mi NE 4.6 mph - N/A   Scattered Clouds
4:16 PM 51.8 °F - 44.6 °F 76% 30.13 in 10.0 mi East 3.5 mph - N/A   Scattered Clouds
4:36 PM 51.8 °F - 44.6 °F 76% 30.12 in 10.0 mi Calm Calm - N/A   Scattered Clouds
4:55 PM 51.8 °F - 44.6 °F 76% 30.13 in 10.0 mi Calm Calm - N/A   Scattered Clouds
5:16 PM 51.8 °F - 44.6 °F 76% 30.13 in 10.0 mi Calm Calm - N/A   Scattered Clouds
5:56 PM 50.0 °F - 44.6 °F 82% 30.13 in 10.0 mi Calm Calm - N/A   Scattered Clouds
6:16 PM 48.2 °F - 44.6 °F 87% 30.13 in 10.0 mi Calm Calm - N/A   Scattered Clouds
6:56 PM 46.4 °F 45.2 °F 42.8 °F 87% 30.14 in 10.0 mi SSW 3.5 mph - N/A   Scattered Clouds
7:16 PM 44.6 °F 43.1 °F 42.8 °F 93% 30.14 in 10.0 mi South 3.5 mph - N/A   Scattered Clouds
7:36 PM 44.6 °F 43.1 °F 42.8 °F 93% 30.15 in 10.0 mi SW 3.5 mph - N/A   Scattered Clouds
7:56 PM 44.6 °F - 42.8 °F 93% 30.15 in 10.0 mi Calm Calm - N/A   Clear
8:16 PM 44.6 °F 43.1 °F 42.8 °F 93% 30.16 in 10.0 mi WSW 3.5 mph - N/A   Clear
8:55 PM 42.8 °F - 39.2 °F 87% 30.15 in 10.0 mi Calm Calm - N/A   Mostly Cloudy
9:56 PM 42.8 °F - 39.2 °F 87% 30.15 in 10.0 mi Calm Calm - N/A   Partly Cloudy
10:16 PM 42.8 °F - 39.2 °F 87% 30.15 in 7.0 mi Calm Calm - N/A   Clear
10:36 PM 41.0 °F 39.0 °F 39.2 °F 93% 30.14 in 1.5 mi West 3.5 mph - N/A   Scattered Clouds
11:16 PM 39.2 °F 37.0 °F 37.4 °F 93% 30.14 in 2.5 mi ESE 3.5 mph - N/A   Clear
11:36 PM 39.2 °F - 35.6 °F 87% 30.14 in 2.0 mi Calm Calm - N/A   Clear